^^
Saratoga-Weather Station Historical Data
Daily Summary for August 31, 2020 Units:  Metric    English   Both
Daily Weekly Monthly Yearly Custom
  High: Low: Average:
Temperature: 12.6 °C 11.1 °C 11.6 °C
Dew Point: 11.4 °C 10 °C 10.7 °C
Humidity: 96% 91% 94%
Wind Speed: 11.1km/h 0km/h 0.2km/h
Wind Gust: 30.6km/h - -
Wind- - West
Pressure: 1013.9 hPa 1009.1 hPa -
Precipitation: 1.8 mm    
Historical Graphs
 
 
Tabular Data for August 31, 2020
Time Temperature Dew Point Pressure Wind Wind Speed Wind Gust Humidity Rainfall Rate (Hourly) solar
00:01 11.4 °C 10.6 °C 1009.1 hPa Calm     95% 0.2 mm 0 W/m2
00:06 11.3 °C 10.7 °C 1009.1 hPa Calm     96% 0.5 mm 0 W/m2
00:11 11.3 °C 10.7 °C 1009.1 hPa Calm     96% 0.5 mm 0 W/m2
00:16 11.3 °C 10.7 °C 1009.1 hPa Calm   20.9 km/h 96% 0.2 mm 0 W/m2
00:21 11.3 °C 10.7 °C 1009.1 hPa Calm     96% 0.2 mm 0 W/m2
00:26 11.3 °C 10.7 °C 1009.1 hPa Calm   20.9 km/h 96% 0.2 mm 0 W/m2
00:31 11.3 °C 10.7 °C 1009.1 hPa Calm   24.1 km/h 96% 0.5 mm 0 W/m2
00:36 11.3 °C 10.7 °C 1009.5 hPa Calm   3.2 km/h 96% 0.5 mm 0 W/m2
00:41 11.3 °C 10.7 °C 1009.5 hPa Calm   24.1 km/h 96% 0.5 mm 0 W/m2
00:46 11.3 °C 10.7 °C 1009.5 hPa Calm     96% 0.5 mm 0 W/m2
00:51 11.3 °C 10.7 °C 1009.5 hPa Calm   22.5 km/h 96% 0.5 mm 0 W/m2
00:56 11.3 °C 10.7 °C 1009.5 hPa Calm     96% 0.5 mm 0 W/m2
01:01 11.3 °C 10.7 °C 1009.5 hPa Calm   19.3 km/h 96% 0.5 mm 0 W/m2
01:06 11.3 °C 10.7 °C 1009.5 hPa Calm     96% 0.5 mm 0 W/m2
01:11 11.3 °C 10.7 °C 1009.5 hPa Calm     96% 0.5 mm 0 W/m2
01:16 11.4 °C 10.6 °C 1009.5 hPa Calm   1.6 km/h 95% 0.5 mm 0 W/m2
01:21 11.4 °C 10.6 °C 1009.5 hPa Calm     95% 0.5 mm 0 W/m2
01:26 11.4 °C 10.6 °C 1009.5 hPa Calm     95% 0.5 mm 0 W/m2
01:31 11.4 °C 10.6 °C 1009.5 hPa SW 4.7 km/h 19.3 km/h 95% 0.2 mm 0 W/m2
01:36 11.4 °C 10.6 °C 1009.5 hPa West 6.4 km/h 6.4 km/h 95% 0.2 mm 0 W/m2
01:41 11.4 °C 10.6 °C 1009.5 hPa West 4.7 km/h 17.7 km/h 95% 0.2 mm 0 W/m2
01:46 11.4 °C 10.6 °C 1009.8 hPa Calm   1.6 km/h 95% 0.2 mm 0 W/m2
01:51 11.4 °C 10.6 °C 1009.5 hPa West 11.1 km/h 11.3 km/h 95% 0.2 mm 0 W/m2
01:56 11.4 °C 10.6 °C 1009.5 hPa Calm   1.6 km/h 95% 0.2 mm 0 W/m2
02:01 11.4 °C 10.6 °C 1009.5 hPa Calm     95% 0.0 mm 0 W/m2
02:06 11.4 °C 10.6 °C 1009.5 hPa Calm     95% 0.0 mm 0 W/m2
02:11 11.4 °C 10.6 °C 1009.5 hPa Calm   30.6 km/h 95% 0.2 mm 0 W/m2
02:16 11.4 °C 10.6 °C 1009.1 hPa Calm     95% 0.2 mm 0 W/m2
02:21 11.4 °C 10.6 °C 1009.1 hPa Calm   30.6 km/h 95% 0.2 mm 0 W/m2
02:26 11.4 °C 10.6 °C 1009.1 hPa Calm   16.1 km/h 95% 0.2 mm 0 W/m2
02:31 11.4 °C 10.6 °C 1009.5 hPa Calm   29 km/h 95% 0.2 mm 0 W/m2
02:36 11.4 °C 10.6 °C 1009.5 hPa Calm   11.3 km/h 95% 0.2 mm 0 W/m2
02:41 11.4 °C 10.6 °C 1009.5 hPa Calm     95% 0.2 mm 0 W/m2
02:46 11.4 °C 10.6 °C 1009.5 hPa Calm     95% 0.2 mm 0 W/m2
02:51 11.5 °C 10.7 °C 1009.8 hPa Calm     95% 0.2 mm 0 W/m2
02:56 11.5 °C 10.6 °C 1009.8 hPa Calm     94% 0.2 mm 0 W/m2
03:01 11.6 °C 10.7 °C 1010.2 hPa Calm     94% 0.2 mm 0 W/m2
03:06 11.5 °C 10.6 °C 1009.8 hPa Calm     94% 0.2 mm 0 W/m2
03:11 11.6 °C 10.7 °C 1009.8 hPa Calm     94% 0.0 mm 0 W/m2
03:16 11.6 °C 10.7 °C 1010.2 hPa Calm     94% 0.0 mm 0 W/m2
03:21 11.6 °C 10.7 °C 1010.2 hPa Calm     94% 0.0 mm 0 W/m2
03:26 11.6 °C 10.7 °C 1010.2 hPa Calm     94% 0.0 mm 0 W/m2
03:31 11.6 °C 10.7 °C 1010.2 hPa Calm     94% 0.0 mm 0 W/m2
03:36 11.5 °C 10.6 °C 1010.2 hPa Calm     94% 0.0 mm 0 W/m2
03:41 11.5 °C 10.6 °C 1010.2 hPa Calm   1.6 km/h 94% 0.0 mm 0 W/m2
03:46 11.5 °C 10.6 °C 1010.2 hPa Calm     94% 0.0 mm 0 W/m2
03:51 11.6 °C 10.7 °C 1010.2 hPa Calm     94% 0.0 mm 0 W/m2
03:56 11.6 °C 10.7 °C 1010.2 hPa Calm     94% 0.0 mm 0 W/m2
04:01 11.6 °C 10.7 °C 1010.2 hPa Calm     94% 0.0 mm 0 W/m2
04:06 11.6 °C 10.7 °C 1010.2 hPa Calm     94% 0.0 mm 0 W/m2
04:12 11.6 °C 10.7 °C 1010.2 hPa WNW 1.4 km/h 1.6 km/h 94% 0.0 mm 0 W/m2
04:17 11.6 °C 10.7 °C 1010.2 hPa Calm     94% 0.0 mm 0 W/m2
04:22 11.5 °C 10.6 °C 1010.2 hPa Calm     94% 0.0 mm 0 W/m2
04:27 11.4 °C 10.5 °C 1010.2 hPa Calm   1.6 km/h 94% 0.0 mm 0 W/m2
04:32 11.4 °C 10.5 °C 1010.5 hPa Calm     94% 0.0 mm 0 W/m2
04:37 11.3 °C 10.4 °C 1010.2 hPa Calm     94% 0.0 mm 0 W/m2
04:42 11.3 °C 10.5 °C 1010.5 hPa Calm     95% 0.2 mm 0 W/m2
04:47 11.3 °C 10.5 °C 1010.5 hPa Calm     95% 0.2 mm 0 W/m2
04:52 11.3 °C 10.5 °C 1010.5 hPa Calm   22.5 km/h 95% 0.2 mm 0 W/m2
04:57 11.2 °C 10.4 °C 1010.8 hPa Calm     95% 0.2 mm 0 W/m2
05:02 11.3 °C 10.5 °C 1010.8 hPa Calm   6.4 km/h 95% 0.2 mm 0 W/m2
05:07 11.2 °C 10.4 °C 1010.5 hPa Calm     95% 0.2 mm 0 W/m2
05:12 11.3 °C 10.5 °C 1010.5 hPa Calm     95% 0.2 mm 0 W/m2
05:17 11.2 °C 10.4 °C 1010.5 hPa Calm     95% 0.2 mm 0 W/m2
05:22 11.3 °C 10.4 °C 1010.8 hPa Calm     94% 0.2 mm 0 W/m2
05:27 11.3 °C 10.4 °C 1010.8 hPa Calm   1.6 km/h 94% 0.2 mm 0 W/m2
05:32 11.4 °C 10.5 °C 1010.8 hPa Calm   8 km/h 94% 0.2 mm 0 W/m2
05:37 11.3 °C 10.5 °C 1010.8 hPa Calm     95% 0.2 mm 0 W/m2
05:42 11.3 °C 10.5 °C 1010.8 hPa Calm   3.2 km/h 95% 0.0 mm 0 W/m2
05:47 11.3 °C 10.5 °C 1010.8 hPa Calm     95% 0.0 mm 0 W/m2
05:52 11.2 °C 10.4 °C 1010.8 hPa Calm     95% 0.0 mm 0 W/m2
05:57 11.2 °C 10.4 °C 1011.2 hPa Calm     95% 0.0 mm 0 W/m2
06:02 11.2 °C 10.4 °C 1011.2 hPa Calm     95% 0.0 mm 0 W/m2
06:07 11.2 °C 10.4 °C 1011.2 hPa Calm     95% 0.0 mm 0 W/m2
06:12 11.2 °C 10.4 °C 1011.2 hPa Calm     95% 0.2 mm 0 W/m2
06:17 11.2 °C 10.4 °C 1011.2 hPa Calm     95% 0.2 mm 0 W/m2
06:22 11.2 °C 10.4 °C 1011.2 hPa Calm     95% 0.2 mm 0 W/m2
06:27 11.2 °C 10.4 °C 1011.2 hPa Calm     95% 0.2 mm 0 W/m2
06:32 11.2 °C 10.4 °C 1011.2 hPa Calm     95% 0.2 mm 0 W/m2
06:37 11.2 °C 10.4 °C 1011.2 hPa Calm     95% 0.2 mm 0 W/m2
06:42 11.2 °C 10.4 °C 1011.2 hPa Calm   1.6 km/h 95% 0.2 mm 0 W/m2
06:47 11.2 °C 10.4 °C 1011.5 hPa Calm     95% 0.2 mm 0 W/m2
06:52 11.2 °C 10.4 °C 1011.5 hPa Calm     95% 0.2 mm 0 W/m2
06:57 11.2 °C 10.4 °C 1011.2 hPa Calm     95% 0.2 mm 0 W/m2
07:02 11.2 °C 10.4 °C 1011.5 hPa Calm     95% 0.2 mm 0 W/m2
07:07 11.2 °C 10.4 °C 1011.5 hPa Calm   3.2 km/h 95% 0.2 mm 0 W/m2
07:12 11.2 °C 10.4 °C 1011.5 hPa Calm     95% 0.0 mm 0 W/m2
07:17 11.3 °C 10.5 °C 1011.5 hPa Calm   3.2 km/h 95% 0.0 mm 0 W/m2
07:22 11.3 °C 10.5 °C 1011.5 hPa Calm     95% 0.0 mm 0 W/m2
07:27 11.3 °C 10.5 °C 1011.9 hPa Calm     95% 0.0 mm 0 W/m2
07:32 11.3 °C 10.5 °C 1011.9 hPa Calm     95% 0.0 mm 0 W/m2
07:37 11.3 °C 10.5 °C 1011.9 hPa Calm     95% 0.0 mm 0 W/m2
07:42 11.3 °C 10.4 °C 1012.2 hPa Calm     94% 0.0 mm 0 W/m2
07:47 11.3 °C 10.4 °C 1012.2 hPa Calm     94% 0.0 mm 0 W/m2
07:52 11.2 °C 10.4 °C 1012.2 hPa Calm     95% 0.0 mm 0 W/m2
07:57 11.2 °C 10.4 °C 1012.2 hPa Calm     95% 0.0 mm 0 W/m2
08:02 11.2 °C 10.4 °C 1012.5 hPa Calm     95% 0.0 mm 0 W/m2
08:07 11.2 °C 10.4 °C 1012.5 hPa Calm     95% 0.0 mm 0 W/m2
08:12 11.1 °C 10.3 °C 1012.5 hPa Calm   1.6 km/h 95% 0.0 mm 0 W/m2
08:17 11.1 °C 10.3 °C 1012.5 hPa Calm     95% 0.0 mm 0 W/m2
08:22 11.1 °C 10.3 °C 1012.9 hPa Calm     95% 0.2 mm 7 W/m2
08:27 11.1 °C 10.3 °C 1012.9 hPa Calm     95% 0.2 mm 9 W/m2
08:32 11.1 °C 10.3 °C 1012.9 hPa Calm     95% 0.2 mm 11 W/m2
08:37 11.1 °C 10.3 °C 1012.9 hPa Calm     95% 0.2 mm 16 W/m2
08:42 11.1 °C 10.3 °C 1012.9 hPa Calm     95% 0.2 mm 19 W/m2
08:47 11.1 °C 10.3 °C 1012.9 hPa Calm     95% 0.2 mm 21 W/m2
08:52 11.1 °C 10.3 °C 1013.2 hPa Calm     95% 0.2 mm 25 W/m2
08:57 11.1 °C 10.3 °C 1013.2 hPa Calm     95% 0.2 mm 25 W/m2
09:02 11.1 °C 10.3 °C 1013.2 hPa Calm     95% 0.2 mm 39 W/m2
09:07 11.1 °C 10.3 °C 1013.2 hPa Calm     95% 0.2 mm 37 W/m2
09:13 11.1 °C 10.3 °C 1013.5 hPa Calm     95% 0.2 mm 32 W/m2
09:18 11.1 °C 10.3 °C 1013.5 hPa Calm     95% 0.2 mm 35 W/m2
09:23 11.1 °C 10.3 °C 1013.5 hPa Calm     95% 0.0 mm 33 W/m2
09:28 11.1 °C 10.3 °C 1013.5 hPa Calm     95% 0.0 mm 56 W/m2
09:33 11.1 °C 10.3 °C 1013.2 hPa Calm   4.8 km/h 95% 0.0 mm 65 W/m2
09:38 11.1 °C 10.3 °C 1013.2 hPa Calm   14.5 km/h 95% 0.0 mm 72 W/m2
09:43 11.1 °C 10.3 °C 1013.2 hPa Calm   1.6 km/h 95% 0.0 mm 56 W/m2
09:48 11.1 °C 10.2 °C 1013.2 hPa Calm     94% 0.0 mm 109 W/m2
09:53 11.2 °C 10.3 °C 1013.5 hPa Calm   8 km/h 94% 0.0 mm 93 W/m2
09:58 11.2 °C 10.3 °C 1013.5 hPa Calm   1.6 km/h 94% 0.0 mm 102 W/m2
10:03 11.3 °C 10.4 °C 1013.5 hPa Calm     94% 0.0 mm 65 W/m2
10:08 11.3 °C 10.4 °C 1013.5 hPa Calm     94% 0.0 mm 60 W/m2
10:13 11.3 °C 10.4 °C 1013.5 hPa Calm     94% 0.0 mm 67 W/m2
10:18 11.3 °C 10.4 °C 1013.5 hPa Calm     94% 0.0 mm 113 W/m2
10:23 11.3 °C 10.4 °C 1013.5 hPa Calm     94% 0.0 mm 130 W/m2
10:28 11.4 °C 10.3 °C 1013.5 hPa Calm     93% 0.0 mm 121 W/m2
10:33 11.4 °C 10.3 °C 1013.5 hPa Calm     93% 0.0 mm 84 W/m2
10:38 11.4 °C 10.3 °C 1013.9 hPa Calm     93% 0.0 mm 67 W/m2
10:43 11.4 °C 10.3 °C 1013.9 hPa Calm     93% 0.0 mm 79 W/m2
10:48 11.4 °C 10.3 °C 1013.9 hPa Calm     93% 0.0 mm 125 W/m2
10:53 11.4 °C 10.5 °C 1013.9 hPa Calm     94% 0.0 mm 125 W/m2
10:58 11.4 °C 10.5 °C 1013.9 hPa Calm     94% 0.0 mm 97 W/m2
11:03 11.4 °C 10.5 °C 1013.9 hPa Calm     94% 0.0 mm 97 W/m2
11:08 11.3 °C 10.5 °C 1013.9 hPa Calm     95% 0.0 mm 56 W/m2
11:14 11.3 °C 10.5 °C 1013.9 hPa Calm     95% 0.0 mm 91 W/m2
11:19 11.3 °C 10.5 °C 1013.9 hPa Calm     95% 0.0 mm 100 W/m2
11:24 11.4 °C 10.6 °C 1013.9 hPa Calm     95% 0.0 mm 218 W/m2
11:29 11.4 °C 10.6 °C 1013.9 hPa Calm     95% 0.0 mm 234 W/m2
11:34 11.6 °C 10.8 °C 1013.9 hPa Calm     95% 0.0 mm 141 W/m2
11:39 11.6 °C 10.8 °C 1013.9 hPa Calm     95% 0.0 mm 79 W/m2
11:44 11.5 °C 10.7 °C 1013.9 hPa Calm   1.6 km/h 95% 0.0 mm 98 W/m2
11:49 11.5 °C 10.7 °C 1013.9 hPa Calm     95% 0.0 mm 97 W/m2
11:54 11.4 °C 10.6 °C 1013.9 hPa Calm   3.2 km/h 95% 0.0 mm 97 W/m2
11:59 11.5 °C 10.6 °C 1013.9 hPa Calm     94% 0.0 mm 90 W/m2
12:04 11.5 °C 10.6 °C 1013.9 hPa Calm   1.6 km/h 94% 0.0 mm 105 W/m2
12:09 11.5 °C 10.6 °C 1013.9 hPa Calm     94% 0.0 mm 118 W/m2
12:14 11.6 °C 10.7 °C 1013.9 hPa Calm     94% 0.0 mm 97 W/m2
12:19 11.6 °C 10.7 °C 1013.9 hPa Calm     94% 0.0 mm 84 W/m2
12:24 11.5 °C 10.6 °C 1013.9 hPa Calm     94% 0.0 mm 125 W/m2
12:29 11.6 °C 10.7 °C 1013.9 hPa Calm     94% 0.0 mm 93 W/m2
12:34 11.6 °C 10.7 °C 1013.9 hPa WNW 6.4 km/h 6.4 km/h 94% 0.0 mm 156 W/m2
12:39 11.6 °C 10.7 °C 1013.5 hPa Calm   1.6 km/h 94% 0.0 mm 169 W/m2
12:45 11.7 °C 10.8 °C 1013.5 hPa Calm     94% 0.0 mm 125 W/m2
12:50 11.8 °C 10.9 °C 1013.5 hPa Calm   1.6 km/h 94% 0.0 mm 135 W/m2
12:55 11.8 °C 10.9 °C 1013.5 hPa Calm     94% 0.0 mm 120 W/m2
13:00 11.9 °C 11 °C 1013.5 hPa Calm     94% 0.0 mm 134 W/m2
13:05 12 °C 11.1 °C 1013.5 hPa Calm     94% 0.0 mm 123 W/m2
13:10 12.1 °C 11.2 °C 1013.5 hPa Calm     94% 0.0 mm 167 W/m2
13:15 12.1 °C 11.2 °C 1013.5 hPa Calm     94% 0.0 mm 174 W/m2
13:20 12.2 °C 11.3 °C 1013.5 hPa Calm     94% 0.0 mm 151 W/m2
13:25 12.3 °C 11.2 °C 1013.5 hPa Calm     93% 0.0 mm 169 W/m2
13:30 12.4 °C 11.1 °C 1013.5 hPa Calm   1.6 km/h 92% 0.0 mm 144 W/m2
13:35 12.4 °C 11.3 °C 1013.5 hPa Calm     93% 0.0 mm 190 W/m2
13:40 12.5 °C 11.2 °C 1013.5 hPa Calm     92% 0.0 mm 141 W/m2
13:45 12.5 °C 11.2 °C 1013.5 hPa Calm     92% 0.0 mm 72 W/m2
13:50 12.4 °C 11.1 °C 1013.5 hPa West 4.7 km/h 4.8 km/h 92% 0.0 mm 97 W/m2
13:55 12.4 °C 11.1 °C 1013.5 hPa Calm     92% 0.0 mm 95 W/m2
14:00 12.4 °C 11.1 °C 1013.5 hPa Calm     92% 0.0 mm 116 W/m2
14:05 12.4 °C 11.3 °C 1013.5 hPa Calm     93% 0.0 mm 123 W/m2
14:10 12.3 °C 11 °C 1013.2 hPa Calm     92% 0.0 mm 114 W/m2
14:15 12.4 °C 11.1 °C 1013.2 hPa Calm     92% 0.0 mm 93 W/m2
14:20 12.4 °C 11.1 °C 1013.2 hPa Calm     92% 0.0 mm 86 W/m2
14:26 12.4 °C 11.1 °C 1013.2 hPa Calm     92% 0.0 mm 74 W/m2
14:31 12.4 °C 11 °C 1013.2 hPa Calm     91% 0.0 mm 69 W/m2
14:36 12.4 °C 11.1 °C 1013.2 hPa Calm     92% 0.0 mm 118 W/m2
14:41 12.4 °C 11.1 °C 1013.2 hPa Calm     92% 0.0 mm 114 W/m2
14:46 12.5 °C 11.2 °C 1013.2 hPa Calm     92% 0.0 mm 97 W/m2
14:51 12.5 °C 11.2 °C 1013.2 hPa Calm     92% 0.0 mm 86 W/m2
14:56 12.5 °C 11.2 °C 1013.2 hPa Calm   1.6 km/h 92% 0.0 mm 76 W/m2
15:01 12.4 °C 11.1 °C 1013.2 hPa Calm   1.6 km/h 92% 0.0 mm 125 W/m2
15:06 12.5 °C 11.2 °C 1013.2 hPa Calm     92% 0.0 mm 104 W/m2
15:11 12.6 °C 11.3 °C 1013.2 hPa Calm     92% 0.0 mm 135 W/m2
15:16 12.6 °C 11.3 °C 1013.2 hPa Calm     92% 0.0 mm 77 W/m2
15:21 12.6 °C 11.3 °C 1013.2 hPa Calm     92% 0.0 mm 53 W/m2
15:26 12.6 °C 11.2 °C 1013.2 hPa Calm     91% 0.0 mm 83 W/m2
15:31 12.6 °C 11.3 °C 1013.2 hPa Calm   6.4 km/h 92% 0.0 mm 49 W/m2
15:36 12.6 °C 11.3 °C 1013.2 hPa Calm     92% 0.0 mm 51 W/m2
15:41 12.6 °C 11.3 °C 1013.2 hPa Calm     92% 0.0 mm 46 W/m2
15:46 12.6 °C 11.3 °C 1013.2 hPa Calm     92% 0.0 mm 58 W/m2
15:51 12.6 °C 11.3 °C 1013.2 hPa Calm     92% 0.0 mm 76 W/m2
15:56 12.6 °C 11.3 °C 1013.2 hPa Calm   1.6 km/h 92% 0.0 mm 44 W/m2
16:01 12.6 °C 11.3 °C 1013.2 hPa Calm     92% 0.0 mm 26 W/m2
16:06 12.5 °C 11.4 °C 1013.2 hPa Calm     93% 0.0 mm 32 W/m2
16:11 12.4 °C 11.3 °C 1013.2 hPa Calm     93% 0.0 mm 26 W/m2
16:16 12.4 °C 11.3 °C 1013.2 hPa Calm     93% 0.0 mm 23 W/m2
16:21 12.3 °C 11.2 °C 1013.2 hPa Calm     93% 0.0 mm 26 W/m2
16:26 12.2 °C 11.3 °C 1012.9 hPa Calm     94% 0.0 mm 16 W/m2
16:31 12.2 °C 11.3 °C 1012.9 hPa Calm     94% 0.2 mm 16 W/m2
16:36 12.1 °C 11.2 °C 1012.9 hPa Calm     94% 0.2 mm 37 W/m2
16:41 12.1 °C 11.2 °C 1012.9 hPa Calm     94% 0.2 mm 30 W/m2
16:46 12 °C 11.1 °C 1012.9 hPa Calm     94% 0.2 mm 16 W/m2
16:51 12 °C 11.1 °C 1012.9 hPa Calm   3.2 km/h 94% 0.2 mm 11 W/m2
16:56 12 °C 11.1 °C 1012.9 hPa Calm     94% 0.2 mm 7 W/m2
17:01 11.9 °C 11.1 °C 1012.9 hPa Calm     95% 0.2 mm 5 W/m2
17:07 11.9 °C 11.1 °C 1012.9 hPa Calm     95% 0.2 mm 7 W/m2
17:12 11.9 °C 11.1 °C 1012.9 hPa Calm     95% 0.2 mm 5 W/m2
17:17 11.8 °C 11 °C 1013.2 hPa Calm     95% 0.2 mm 0 W/m2
17:22 11.8 °C 11 °C 1013.2 hPa Calm     95% 0.2 mm 0 W/m2
17:27 11.8 °C 11 °C 1013.2 hPa Calm     95% 0.5 mm 0 W/m2
17:32 11.8 °C 11 °C 1012.9 hPa Calm     95% 0.2 mm 0 W/m2
17:37 11.8 °C 11 °C 1013.2 hPa Calm     95% 0.2 mm 0 W/m2
17:42 11.8 °C 11 °C 1013.2 hPa Calm     95% 0.2 mm 0 W/m2
17:47 11.7 °C 10.9 °C 1013.2 hPa Calm     95% 0.2 mm 0 W/m2
17:52 11.7 °C 10.9 °C 1012.9 hPa Calm     95% 0.2 mm 0 W/m2
17:57 11.7 °C 10.9 °C 1012.9 hPa Calm     95% 0.2 mm 0 W/m2
18:02 11.7 °C 10.9 °C 1012.9 hPa Calm     95% 0.2 mm 0 W/m2
18:07 11.7 °C 10.9 °C 1012.9 hPa Calm     95% 0.2 mm 0 W/m2
18:12 11.7 °C 10.9 °C 1012.9 hPa Calm     95% 0.2 mm 0 W/m2
18:17 11.8 °C 11 °C 1012.9 hPa Calm     95% 0.2 mm 0 W/m2
18:22 11.8 °C 11 °C 1012.9 hPa Calm     95% 0.0 mm 0 W/m2
18:27 11.8 °C 11 °C 1012.9 hPa Calm     95% 0.0 mm 0 W/m2
18:32 11.8 °C 11 °C 1012.9 hPa Calm     95% 0.0 mm 0 W/m2
18:37 11.8 °C 11 °C 1012.9 hPa Calm   1.6 km/h 95% 0.0 mm 0 W/m2
18:43 11.8 °C 11 °C 1013.2 hPa Calm     95% 0.0 mm 0 W/m2
18:48 11.8 °C 11 °C 1013.2 hPa Calm   1.6 km/h 95% 0.0 mm 0 W/m2
18:53 11.8 °C 10.9 °C 1013.2 hPa Calm     94% 0.0 mm 0 W/m2
18:58 11.8 °C 10.9 °C 1013.2 hPa Calm     94% 0.0 mm 0 W/m2
19:03 11.8 °C 10.9 °C 1013.2 hPa Calm     94% 0.0 mm 0 W/m2
19:08 11.7 °C 10.9 °C 1013.2 hPa Calm     95% 0.0 mm 0 W/m2
19:13 11.7 °C 10.9 °C 1013.2 hPa Calm     95% 0.0 mm 0 W/m2
19:18 11.7 °C 10.9 °C 1013.2 hPa Calm     95% 0.0 mm 0 W/m2
19:23 11.6 °C 10.8 °C 1013.2 hPa Calm     95% 0.0 mm 0 W/m2
19:28 11.6 °C 10.8 °C 1012.9 hPa Calm     95% 0.0 mm 0 W/m2
19:33 11.7 °C 10.9 °C 1012.9 hPa Calm     95% 0.0 mm 0 W/m2
19:38 11.7 °C 10.9 °C 1012.9 hPa Calm     95% 0.0 mm 0 W/m2
19:43 11.7 °C 10.8 °C 1012.9 hPa Calm   1.6 km/h 94% 0.0 mm 0 W/m2
19:48 11.7 °C 10.8 °C 1012.9 hPa Calm     94% 0.0 mm 0 W/m2
19:53 11.7 °C 10.8 °C 1012.9 hPa Calm   4.8 km/h 94% 0.0 mm 0 W/m2
19:58 11.7 °C 10.8 °C 1012.9 hPa Calm     94% 0.0 mm 0 W/m2
20:03 11.6 °C 10.7 °C 1012.9 hPa WNW 4.8 km/h 4.8 km/h 94% 0.0 mm 0 W/m2
20:08 11.6 °C 10.7 °C 1012.9 hPa Calm     94% 0.0 mm 0 W/m2
20:13 11.6 °C 10.7 °C 1012.9 hPa Calm     94% 0.0 mm 0 W/m2
20:18 11.6 °C 10.7 °C 1012.9 hPa Calm     94% 0.0 mm 0 W/m2
20:24 11.6 °C 10.7 °C 1012.9 hPa Calm   1.6 km/h 94% 0.0 mm 0 W/m2
20:29 11.6 °C 10.7 °C 1012.5 hPa Calm     94% 0.0 mm 0 W/m2
20:34 11.6 °C 10.7 °C 1012.5 hPa Calm     94% 0.0 mm 0 W/m2
20:39 11.6 °C 10.7 °C 1012.5 hPa Calm   1.6 km/h 94% 0.0 mm 0 W/m2
20:44 11.6 °C 10.7 °C 1012.5 hPa Calm     94% 0.0 mm 0 W/m2
20:49 11.6 °C 10.7 °C 1012.5 hPa Calm     94% 0.0 mm 0 W/m2
20:54 11.6 °C 10.7 °C 1012.5 hPa Calm     94% 0.0 mm 0 W/m2
20:59 11.6 °C 10.7 °C 1012.5 hPa Calm     94% 0.0 mm 0 W/m2
21:04 11.6 °C 10.7 °C 1012.5 hPa Calm     94% 0.0 mm 0 W/m2
21:09 11.6 °C 10.7 °C 1012.5 hPa Calm     94% 0.0 mm 0 W/m2
21:14 11.6 °C 10.7 °C 1012.5 hPa Calm     94% 0.0 mm 0 W/m2
21:19 11.6 °C 10.7 °C 1012.5 hPa Calm     94% 0.0 mm 0 W/m2
21:24 11.6 °C 10.5 °C 1012.5 hPa Calm     93% 0.0 mm 0 W/m2
21:29 11.6 °C 10.5 °C 1012.5 hPa Calm     93% 0.0 mm 0 W/m2
21:34 11.6 °C 10.5 °C 1012.5 hPa Calm     93% 0.0 mm 0 W/m2
21:39 11.6 °C 10.5 °C 1012.5 hPa Calm     93% 0.0 mm 0 W/m2
21:44 11.6 °C 10.5 °C 1012.5 hPa Calm     93% 0.0 mm 0 W/m2
21:49 11.6 °C 10.5 °C 1012.9 hPa Calm     93% 0.0 mm 0 W/m2
21:54 11.6 °C 10.5 °C 1012.9 hPa Calm     93% 0.0 mm 0 W/m2
22:00 11.6 °C 10.5 °C 1012.9 hPa Calm     93% 0.0 mm 0 W/m2
22:05 11.6 °C 10.3 °C 1012.5 hPa Calm     92% 0.0 mm 0 W/m2
22:10 11.6 °C 10.3 °C 1012.5 hPa Calm   11.3 km/h 92% 0.0 mm 0 W/m2
22:15 11.6 °C 10.3 °C 1012.5 hPa Calm     92% 0.0 mm 0 W/m2
22:20 11.5 °C 10.2 °C 1012.5 hPa Calm     92% 0.0 mm 0 W/m2
22:25 11.5 °C 10.2 °C 1012.5 hPa Calm     92% 0.0 mm 0 W/m2
22:30 11.6 °C 10.2 °C 1012.2 hPa Calm   1.6 km/h 91% 0.0 mm 0 W/m2
22:35 11.5 °C 10.1 °C 1012.5 hPa Calm     91% 0.0 mm 0 W/m2
22:40 11.6 °C 10.2 °C 1012.2 hPa Calm     91% 0.0 mm 0 W/m2
22:45 11.5 °C 10.1 °C 1012.2 hPa SSW 1.4 km/h 1.6 km/h 91% 0.0 mm 0 W/m2
22:50 11.4 °C 10 °C 1012.2 hPa Calm     91% 0.0 mm 0 W/m2
22:55 11.4 °C 10.1 °C 1011.9 hPa Calm     92% 0.0 mm 0 W/m2
23:00 11.3 °C 10 °C 1011.9 hPa Calm     92% 0.0 mm 0 W/m2
23:05 11.3 °C 10.2 °C 1011.9 hPa Calm     93% 0.0 mm 0 W/m2
23:10 11.2 °C 10.1 °C 1011.9 hPa Calm   1.6 km/h 93% 0.0 mm 0 W/m2
23:15 11.2 °C 10.1 °C 1012.2 hPa Calm     93% 0.0 mm 0 W/m2
23:20 11.2 °C 10.1 °C 1012.2 hPa Calm     93% 0.0 mm 0 W/m2
23:25 11.2 °C 10.1 °C 1012.2 hPa Calm     93% 0.0 mm 0 W/m2
23:30 11.2 °C 10.1 °C 1012.2 hPa Calm     93% 0.0 mm 0 W/m2
23:35 11.2 °C 10.1 °C 1012.2 hPa Calm     93% 0.0 mm 0 W/m2
23:40 11.2 °C 10.3 °C 1012.5 hPa Calm     94% 0.0 mm 0 W/m2
23:45 11.1 °C 10 °C 1012.2 hPa Calm     93% 0.0 mm 0 W/m2
23:50 11.1 °C 10.2 °C 1012.2 hPa Calm     94% 0.0 mm 0 W/m2
23:55 11.1 °C 10.2 °C 1012.2 hPa Calm     94% 0.0 mm 0 W/m2
Juneau County Weather
Compliments of Weather Underground - 4 mb